EW3084 Weather Reports


Display with metric or nautical units.
time (UTC)temp
F
wind
direction
speed
MPH
gust
MPH
rain 1hr
in
rain 24hr
in
rain mn
in
humidity
%
barometer
mb
20260905133603 57 291 1.0 4.0 0.04 0.43 0.06 94
20260905132703 57 287 2.0 4.0 0.04 0.44 0.06 94
20260905131803 57 271 0.0 4.0 0.04 0.46 0.06 94
20260905130903 58 269 0.0 2.0 0.05 0.47 0.06 91
20260905130003 57 322 1.0 3.0 0.04 0.46 0.04 89
20260905125403 57 29 0.0 2.0 0.02 0.45 0.02 94
20260905124503 57 0 0.0 0.0 0.02 0.45 0.02 92
20260905123603 58 0 0.0 0.0 0.02 0.45 0.02 91
20260905122703 58 0 0.0 0.0 0.02 0.45 0.02 88
20260905121803 60 336 2.0 7.0 0.02 0.46 0.02 83
20260905120903 62 296 4.0 10.0 0.01 0.44 0.01 75
20260905120003 62 288 1.0 7.0 0.00 0.43 0.00 75
20260905115403 60 312 1.0 4.0 0.00 0.43 0.00 78
20260905114503 60 292 3.0 6.0 0.00 0.43 0.00 81
20260905113603 60 269 2.0 7.0 0.00 0.43 0.00 81
20260905112918 60 278 3.0 6.0 0.00 0.43 0.00 81
20260905112017 59 266 3.0 7.0 0.00 0.43 0.00 82
20260905110903 60 266 2.0 7.0 0.00 0.43 0.00 81
20260905110216 60 287 2.0 5.0 0.00 0.43 0.00 81
20260905105403 60 267 3.0 9.0 0.00 0.43 0.00 83
20260905104503 60 268 4.0 9.0 0.00 0.43 0.00 81
20260905103818 61 283 4.0 10.0 0.00 0.43 0.00 78
20260905102703 61 304 4.0 10.0 0.00 0.43 0.00 73
20260905101803 61 295 3.0 7.0 0.00 0.43 0.00 74
20260905100903 61 273 3.0 10.0 0.00 0.43 0.00 78
20260905100003 61 278 4.0 10.0 0.00 0.43 0.00 80
20260905095619 60 277 4.0 10.0 0.00 0.43 0.00 79
20260905094503 60 260 2.0 5.0 0.00 0.43 0.00 83
20260905093603 59 296 1.0 3.0 0.00 0.43 0.00 87
20260905092703 59 285 2.0 4.0 0.00 0.43 0.00 85
20260905092016 58 284 2.0 5.0 0.00 0.43 0.00 85
20260905090903 58 272 2.0 5.0 0.00 0.43 0.00 85
20260905090003 57 284 1.0 6.0 0.00 0.43 0.00 87
20260905085619 57 283 1.0 4.0 0.00 0.43 0.00 90
20260905084503 56 276 3.0 6.0 0.00 0.43 0.00 100
20260905083603 56 319 0.0 3.0 0.00 0.43 0.00 100
20260905082703 55 302 0.0 1.0 0.00 0.43 0.00 100
20260905081803 55 302 0.0 3.0 0.00 0.43 0.00 100
20260905080903 55 297 2.0 5.0 0.00 0.43 0.00 100
20260905080003 55 214 0.0 3.0 0.00 0.43 0.00 100
20260905075618 54 308 0.0 3.0 0.00 0.43 0.00 100
20260905074503 54 308 0.0 3.0 0.00 0.43 0.00 100
20260905073603 53 308 0.0 2.0 0.00 0.43 0.00 100
20260905072703 53 308 1.0 2.0 0.00 0.43 0.00 100
20260905071803 53 308 0.0 2.0 0.00 0.43 0.00 100
20260905070903 52 308 0.0 1.0 0.00 0.43 0.00 100
20260905070003 52 305 0.0 1.0 0.00 0.43 0.00 100
20260905065403 52 288 0.0 1.0 0.00 0.44 0.00 100
20260905064503 52 288 0.0 2.0 0.00 0.45 0.00 100
20260905063817 52 288 0.0 2.0 0.00 0.45 0.00 100
20260905062703 51 288 2.0 3.0 0.00 0.45 0.00 100
20260905061803 51 294 2.0 4.0 0.00 0.45 0.00 100
20260905060903 51 294 1.0 4.0 0.00 0.45 0.00 100
20260905060003 51 300 1.0 3.0 0.00 0.45 0.00 100
20260905055403 51 302 2.0 4.0 0.00 0.45 0.00 100
20260905054503 51 317 0.0 3.0 0.00 0.45 0.00 100
20260905053603 51 349 0.0 2.0 0.00 0.45 0.00 100
20260905052703 50 349 0.0 2.0 0.00 0.45 0.00 100
20260905051803 50 0 0.0 0.0 0.00 0.45 0.00 100
20260905050903 50 0 0.0 0.0 0.00 0.45 0.00 100
20260905050003 50 0 0.0 0.0 0.00 0.45 0.00 100
20260905045617 50 0 0.0 0.0 0.00 0.45 0.00 100
20260905044503 50 0 0.0 0.0 0.00 0.45 0.00 100
20260905043603 50 0 0.0 0.0 0.00 0.45 0.00 100
20260905042703 50 349 0.0 1.0 0.00 0.45 0.00 100
20260905041803 50 0 0.0 0.0 0.00 0.45 0.00 100
20260905040903 50 0 0.0 0.0 0.00 0.45 0.00 100
20260905040217 50 0 0.0 0.0 0.00 0.45 0.00 100
20260905035403 50 0 0.0 0.0 0.00 0.45 0.00 100
20260905034503 50 0 0.0 0.0 0.00 0.45 0.00 100
20260905033603 50 0 0.0 0.0 0.00 0.45 0.00 100
20260905032703 50 0 0.0 0.0 0.00 0.45 0.00 100
20260905031803 50 349 0.0 2.0 0.00 0.45 0.00 100
20260905030903 50 0 0.0 0.0 0.00 0.45 0.00 100
20260905030003 50 349 0.0 1.0 0.00 0.45 0.00 100
20260905025403 50 349 0.0 1.0 0.00 0.45 0.00 100
20260905024716 50 349 0.0 1.0 0.00 0.45 0.00 100
20260905023603 50 0 0.0 0.0 0.00 0.45 0.00 100
20260905022703 50 0 0.0 0.0 0.00 0.45 0.00 100
20260905021803 50 0 0.0 0.0 0.00 0.45 0.00 100
20260905020903 50 0 0.0 0.0 0.00 0.45 0.00 100
20260905020217 50 349 0.0 1.0 0.00 0.45 0.00 100
20260905015403 50 349 0.0 1.0 0.00 0.45 0.00 100
20260905014503 50 0 0.0 0.0 0.00 0.45 0.00 100
20260905013603 50 0 0.0 0.0 0.00 0.45 0.00 100
20260905012918 50 0 0.0 0.0 0.00 0.45 0.00 100
20260905011803 50 0 0.0 0.0 0.00 0.45 0.00 100
20260905011117 50 0 0.0 0.0 0.00 0.45 0.00 100
20260905010003 50 0 0.0 0.0 0.00 0.45 0.00 100
20260905005403 50 0 0.0 0.0 0.00 0.45 0.00 100
20260905004503 50 0 0.0 0.0 0.00 0.45 0.00 100
20260905003603 50 330 0.0 4.0 0.00 0.45 0.00 100
20260905002918 50 307 0.0 2.0 0.00 0.45 0.00 100
20260905001803 50 0 0.0 0.0 0.00 0.45 0.00 100
20260905000903 50 0 0.0 0.0 0.00 0.45 0.00 100
20260905000216 50 0 0.0 0.0 0.00 0.45 0.00 100
20260904235615 50 0 0.0 0.0 0.00 0.45 0.00 100
20260904234503 50 0 0.0 0.0 0.00 0.45 0.00 100
20260904233603 50 0 0.0 0.0 0.00 0.45 0.00 100
20260904232703 50 0 0.0 0.0 0.00 0.45 0.00 100
20260904231803 50 0 0.0 0.0 0.00 0.45 0.00 100
20260904230903 50 0 0.0 0.0 0.00 0.45 0.00 100
20260904230003 50 0 0.0 0.0 0.00 0.45 0.00 100
20260904225403 50 0 0.0 0.0 0.00 0.45 0.00 100
20260904224503 50 0 0.0 0.0 0.00 0.45 0.00 100
20260904223603 50 0 0.0 0.0 0.00 0.45 0.00 100
20260904222703 50 0 0.0 0.0 0.00 0.45 0.00 100
20260904221803 50 0 0.0 0.0 0.00 0.45 0.00 100
20260904220903 50 0 0.0 0.0 0.00 0.45 0.00 100
20260904220219 50 0 0.0 0.0 0.00 0.45 0.00 100
20260904215403 50 303 0.0 2.0 0.00 0.45 0.45 100
20260904214503 50 0 0.0 0.0 0.00 0.45 0.45 100
20260904213817 50 0 0.0 0.0 0.00 0.45 0.45 100
20260904212917 50 0 0.0 0.0 0.00 0.45 0.45 100
20260904211803 50 0 0.0 0.0 0.00 0.45 0.45 100
20260904210903 50 0 0.0 0.0 0.00 0.45 0.45 100
20260904210219 50 349 0.0 1.0 0.00 0.45 0.45 100
20260904205618 50 352 0.0 2.0 0.00 0.45 0.45 100
20260904204503 51 349 0.0 3.0 0.00 0.45 0.45 100
20260904203603 51 329 0.0 2.0 0.00 0.45 0.45 100
20260904202703 51 0 0.0 0.0 0.00 0.45 0.45 100
20260904201803 51 335 0.0 1.0 0.00 0.45 0.45 100
20260904201119 51 335 0.0 2.0 0.00 0.45 0.45 100
20260904200003 51 335 0.0 2.0 0.00 0.45 0.45 100
20260904195403 51 332 0.0 4.0 0.00 0.45 0.45 100
20260904194717 51 336 0.0 4.0 0.00 0.45 0.45 100
20260904193816 51 1 0.0 3.0 0.00 0.45 0.45 100
20260904192916 52 1 0.0 3.0 0.00 0.45 0.45 100
20260904191803 52 24 1.0 3.0 0.00 0.45 0.45 100
20260904190903 52 96 0.0 3.0 0.00 0.45 0.45 100
20260904190218 52 0 0.0 0.0 0.00 0.45 0.45 100
20260904185617 52 96 0.0 1.0 0.00 0.45 0.45 100
20260904184717 52 96 0.0 1.0 0.00 0.45 0.45 100
20260904183816 52 96 0.0 1.0 0.00 0.45 0.45 100
20260904182703 52 96 0.0 1.0 0.01 0.45 0.45 100
20260904181803 52 96 0.0 1.0 0.02 0.45 0.45 100
20260904180903 52 0 0.0 0.0 0.02 0.45 0.45 100
20260904180003 52 0 0.0 0.0 0.02 0.45 0.45 100
20260904175617 52 0 0.0 0.0 0.03 0.45 0.45 100
20260904174503 52 0 0.0 0.0 0.06 0.45 0.45 100
20260904173603 52 103 0.0 2.0 0.10 0.45 0.45 100
20260904172703 52 0 0.0 0.0 0.16 0.44 0.44 100
20260904171803 53 323 0.0 1.0 0.20 0.43 0.43 100
20260904170903 53 318 0.0 1.0 0.24 0.43 0.43 100
20260904170003 52 328 0.0 2.0 0.26 0.43 0.43 100
20260904165403 53 11 0.0 1.0 0.26 0.42 0.42 100
20260904164716 53 0 0.0 0.0 0.27 0.40 0.40 100
20260904163603 53 338 0.0 3.0 0.24 0.35 0.35 100
20260904162703 53 347 0.0 1.0 0.20 0.28 0.28 100
20260904161803 53 345 0.0 3.0 0.16 0.24 0.24 100
20260904160903 54 350 0.0 6.0 0.12 0.20 0.20 100
20260904160003 54 342 0.0 3.0 0.09 0.17 0.17 100
20260904155617 54 341 0.0 3.0 0.08 0.16 0.16 100
20260904154503 54 336 0.0 4.0 0.05 0.13 0.13 100
20260904153603 55 321 0.0 3.0 0.02 0.10 0.10 100
20260904152703 55 343 0.0 2.0 0.00 0.08 0.08 100
20260904151803 55 340 0.0 3.0 0.00 0.08 0.08 100
20260904150903 56 358 0.0 5.0 0.00 0.08 0.08 100
20260904150003 56 336 1.0 3.0 0.00 0.08 0.08 100
20260904145403 56 341 0.0 3.0 0.00 0.08 0.08 100
20260904144503 56 352 0.0 3.0 0.00 0.08 0.08 100
20260904143603 56 341 0.0 3.0 0.00 0.08 0.08 100
20260904142703 56 322 0.0 2.0 0.01 0.08 0.08 100
20260904141803 56 319 0.0 3.0 0.03 0.08 0.08 100
20260904140903 56 0 0.0 0.0 0.05 0.08 0.08 100
20260904140003 56 0 0.0 0.0 0.06 0.08 0.08 100
20260904135616 56 0 0.0 0.0 0.06 0.08 0.08 100
20260904134719 56 243 0.0 1.0 0.06 0.08 0.08 100